Date,TemperatureHighF,TemperatureAvgF,TemperatureLowF,DewpointHighF,DewpointAvgF,DewpointLowF,HumidityHigh,HumidityAvg,HumidityLow,PressureMaxIn,PressureMinIn,WindSpeedMaxMPH,WindSpeedAvgMPH,GustSpeedMaxMPH,PrecipitationSumIn
2012-12-1,68.0,57.9,50.1,55.1,50.8,46.9,90,78,59,30.36,30.28,2,0,5,0.00
2012-12-2,71.8,60.8,53.3,59.1,54.4,49.2,90,80,63,30.35,30.23,2,0,5,0.00
2012-12-3,73.1,61.5,54.9,61.5,56.1,52.0,97,83,60,30.31,30.21,4,0,6,0.00
2012-12-4,71.0,60.8,53.6,61.5,56.5,51.2,97,86,68,30.32,30.19,3,0,7,0.00
2012-12-5,72.3,63.9,57.9,59.0,56.7,54.7,91,78,63,30.20,30.07,5,0,8,0.00
2012-12-6,62.1,56.6,49.1,57.9,49.9,41.9,89,78,65,30.17,30.09,2,1,6,0.01
2012-12-7,60.0,52.2,48.3,52.9,45.9,41.5,93,79,71,30.13,29.98,1,0,4,0.00
2012-12-8,67.3,55.2,45.5,57.0,51.0,43.7,97,87,68,30.07,29.99,2,0,4,0.00
2012-12-9,65.8,59.5,55.3,62.5,57.6,53.6,97,93,87,30.09,29.96,1,0,3,0.00
2012-12-10,72.4,63.0,56.9,61.8,59.0,55.8,98,88,65,29.96,29.72,3,0,6,0.01
2012-12-11,60.0,55.8,50.0,58.9,49.4,42.3,97,80,64,30.09,29.74,5,1,7,0.01
2012-12-12,50.0,46.1,41.0,44.0,41.7,37.9,96,85,71,30.24,30.07,3,1,8,0.87
2012-12-13,51.2,43.4,38.7,42.3,39.4,36.1,96,86,69,30.35,30.19,3,1,7,0.01
2012-12-14,58.7,45.3,34.0,42.2,37.4,31.6,94,76,49,30.38,30.21,1,0,4,0.00
2012-12-15,60.2,51.1,41.8,51.9,39.5,34.1,89,66,39,30.23,30.07,1,0,4,0.00
2012-12-16,62.6,58.3,54.5,59.9,56.5,52.1,97,94,87,30.07,29.84,2,0,6,0.27
2012-12-17,58.3,56.9,55.4,57.7,56.2,54.6,98,98,96,29.90,29.65,4,0,7,0.41
2012-12-18,60.2,54.5,43.6,57.3,44.6,33.7,98,72,38,29.99,29.72,9,3,17,0.01
2012-12-19,67.1,52.0,38.4,46.3,39.6,33.1,83,64,43,30.10,29.98,6,1,9,0.00
2012-12-20,68.3,54.7,42.8,62.1,47.8,31.7,96,78,57,30.08,29.63,13,2,23,0.30
2012-12-21,46.9,42.5,37.3,32.6,25.7,18.7,63,52,42,30.02,29.80,13,8,24,0.00
2012-12-22,56.0,43.0,31.4,26.7,19.7,17.3,59,41,23,30.17,30.01,7,3,13,0.00
2012-12-23,59.2,46.2,31.9,35.0,27.1,20.4,65,48,31,30.19,30.07,6,1,10,0.00
2012-12-24,49.8,47.7,45.2,48.6,40.9,32.9,97,79,55,30.08,29.87,3,0,8,0.52
2012-12-25,52.0,50.7,49.3,51.2,50.0,48.5,100,97,95,30.05,29.87,2,0,6,0.22
2012-12-26,60.5,51.5,38.8,59.4,45.6,31.2,98,81,59,29.86,29.54,12,6,25,0.75
2012-12-27,51.2,41.2,34.9,37.7,33.2,30.6,87,74,53,30.06,29.83,8,2,11,0.00
2012-12-28,53.1,42.7,33.4,40.1,35.8,31.1,93,78,56,30.13,29.90,2,0,4,0.00
2012-12-29,51.1,43.8,37.0,44.9,39.1,30.8,97,84,67,30.09,29.72,13,5,24,0.63
2012-12-30,49.3,38.4,27.3,30.4,26.4,23.2,90,64,37,30.41,30.09,3,0,7,0.00
2012-12-31,57.7,45.0,30.5,46.0,35.1,25.7,92,70,44,30.43,30.16,7,1,12,0.00